DateTimeUTC,F1_A11,F1_S11,BsB_S11,BsG_S11,BsR_S11,BbsB_S11,BbsG_S11,BbsR_S11,BaB_A11,BaG_A11,BaR_A11,Tu_S11,T_S11,Uu_S11,U_S11,P_S11,T1_A11
2021-08-19T08:00:00Z,00000200,20000000,,,,,,,0000.01,-000.12,-000.08,19.7,26.3,14.0,09.4,0676.2,31.1
2021-08-19T08:01:00Z,00000200,20000000,,,,,,,0000.04,0000.04,-000.02,19.7,26.3,14.0,09.4,0676.2,31.1
2021-08-19T08:02:00Z,00000200,20000000,,,,,,,0000.07,0000.06,0000.08,19.7,26.3,14.0,09.4,0676.2,31.1
2021-08-19T08:03:00Z,00000200,60000000,,,,,,,0000.09,0000.22,0000.11,19.7,26.4,14.1,09.4,0676.2,31.1
2021-08-19T08:04:00Z,00000200,40000000,-000.40,0000.39,0000.03,0000.15,0000.11,0000.20,0000.06,-000.20,0000.05,19.8,26.2,13.9,09.5,0677.2,31.1
2021-08-19T08:05:00Z,00000200,00000000,0000.15,-000.02,0000.26,-000.14,-000.10,0000.23,-000.44,0000.18,-000.28,19.9,26.2,13.8,09.4,0677.2,31.1
2021-08-19T08:06:00Z,00000200,00000000,0000.31,-000.08,-000.01,-000.49,0000.05,-000.09,0000.20,-000.25,0000.20,19.9,26.2,13.7,09.4,0677.2,31.1
2021-08-19T08:07:00Z,00000200,00000000,-000.98,0000.32,-000.01,-000.75,0000.22,0000.24,-000.09,0000.05,-000.09,19.9,26.2,13.8,09.4,0677.3,31.1
2021-08-19T08:08:00Z,00000200,00000000,0000.15,0000.24,0000.22,-000.40,0000.12,0000.30,0000.10,-000.12,-000.01,19.9,26.2,13.7,09.4,0677.2,31.1
2021-08-19T08:09:00Z,00000200,00000000,0000.54,0000.21,-000.16,-000.17,-000.03,0000.27,0000.10,0000.04,0000.04,19.9,26.1,13.8,09.4,0677.2,31.1
2021-08-19T08:10:00Z,00000200,00000000,0000.29,0000.16,0000.26,-000.40,0000.11,0000.34,0000.05,0000.13,0000.11,19.9,26.1,13.9,09.5,0677.2,31.1
2021-08-19T08:11:00Z,00000200,00000000,-000.62,0000.20,0000.13,-000.05,0000.00,0000.22,-000.20,0000.17,0000.03,19.9,26.1,13.8,09.4,0677.3,31.1
2021-08-19T08:12:00Z,00000200,00000000,0000.20,0000.30,0000.03,0000.15,-000.20,0000.26,0000.23,0000.01,-000.07,19.9,26.1,13.8,09.4,0677.2,31.1
2021-08-19T08:13:00Z,00000200,00000000,-000.14,0000.21,-000.25,0000.22,-000.04,0000.24,-000.22,-000.47,-000.34,19.9,26.1,13.8,09.4,0677.2,31.1
2021-08-19T08:14:00Z,00000200,00000000,0000.35,0000.13,0000.23,-000.63,0000.39,0000.03,0000.13,0000.16,0000.05,19.9,26.1,13.8,09.4,0677.2,31.1
2021-08-19T08:15:00Z,00000200,00000000,-000.45,0000.16,-000.26,0000.14,0000.21,0000.06,0000.09,0000.20,0000.16,19.9,26.1,13.8,09.5,0677.2,31.1
2021-08-19T08:16:00Z,00000200,00000000,0000.12,0000.24,-000.07,0000.17,-000.05,0000.20,-000.01,0000.02,0000.04,19.9,26.1,13.8,09.5,0677.2,31.1
2021-08-19T08:17:00Z,00000200,00000000,0000.30,0000.26,0000.35,-000.32,0000.07,0000.47,0000.02,0000.03,0000.09,19.9,26.1,14.0,09.6,0677.2,31.1
2021-08-19T08:18:00Z,00000200,00000000,-000.40,-000.00,0000.41,-000.36,0000.06,0000.12,0000.06,-000.15,0000.27,19.9,26.1,13.9,09.5,0677.2,31.1
2021-08-19T08:19:00Z,00000200,00000000,-000.45,0000.07,-000.05,-000.41,0000.20,0000.11,0000.01,0000.32,-000.18,19.9,26.1,14.0,09.6,0677.2,31.1
2021-08-19T08:20:00Z,00000200,00000000,0000.40,0000.07,-000.33,0000.14,-000.02,-000.07,-000.18,-000.37,-000.03,19.9,26.1,14.1,09.6,0677.2,31.1
2021-08-19T08:21:00Z,00000200,00000000,0000.23,0000.16,0000.26,-000.13,0000.14,0000.40,0000.06,0000.07,-000.09,19.9,26.1,14.1,09.7,0677.2,31.1
2021-08-19T08:22:00Z,00000200,00000000,-000.46,0000.03,-000.10,-000.13,0000.06,0000.26,0000.23,-000.09,0000.19,19.9,26.1,14.2,09.7,0677.2,31.1
2021-08-19T08:23:00Z,00000200,00000000,-000.94,0000.13,-000.10,-000.06,0000.21,-000.17,-000.21,0000.07,-000.06,19.9,26.1,14.2,09.7,0677.2,31.1
2021-08-19T08:24:00Z,00000200,00000000,0000.27,-000.03,0000.28,0000.02,0000.07,0000.11,0000.04,0000.08,-000.23,19.9,26.1,14.2,09.7,0677.2,31.1
2021-08-19T08:25:00Z,00000200,00000000,0000.36,-000.10,0000.25,0000.30,0000.13,0000.38,0000.11,0000.13,0000.23,19.9,26.1,14.2,09.7,0677.2,31.1
2021-08-19T08:26:00Z,00000200,00000000,-000.11,0000.42,-000.10,0000.11,-000.02,-000.04,0000.06,-000.13,-000.23,19.9,26.1,14.2,09.7,0677.2,31.1
2021-08-19T08:27:00Z,00000200,00000000,0000.10,-000.05,-000.12,-000.32,0000.36,0000.12,0000.08,0000.21,0000.25,19.9,26.1,14.2,09.8,0677.2,31.1
2021-08-19T08:28:00Z,00000200,00000000,-000.22,0000.09,0000.07,-000.06,0000.16,-000.05,-000.14,0000.20,-000.46,19.9,26.1,14.3,09.8,0677.2,31.1
2021-08-19T08:29:00Z,00000200,00000000,-000.14,0000.24,0000.20,0000.14,0000.15,0000.32,-000.06,-000.30,0000.35,19.9,26.1,14.4,09.9,0677.2,31.1
2021-08-19T08:30:00Z,00000200,00000000,-000.02,0000.11,0000.13,-000.11,0000.28,0000.14,0000.11,0000.02,0000.24,19.9,26.1,14.4,09.9,0677.2,31.1
2021-08-19T08:31:00Z,00000200,00000000,-000.31,0000.28,0000.20,-000.08,0000.04,0000.21,-000.18,-000.07,-000.46,19.9,26.1,14.5,09.9,0677.2,31.1
2021-08-19T08:32:00Z,00000200,00000000,-000.26,-000.19,-000.10,0000.29,0000.25,-000.00,0000.04,0000.45,0000.27,19.9,26.1,14.3,09.8,0677.2,31.1
2021-08-19T08:33:00Z,00000200,00000000,-000.56,-000.02,-000.08,-000.12,-000.48,-000.01,0000.29,-000.36,-000.05,19.9,26.1,14.4,09.9,0677.2,31.1
2021-08-19T08:34:00Z,00000200,00000000,0000.63,0000.30,-000.03,-000.27,-000.13,0000.15,0000.06,0000.25,0000.33,19.9,26.1,14.5,10.0,0677.1,31.1
2021-08-19T08:35:00Z,00000200,00000000,-000.57,0000.00,0000.13,0000.79,-000.11,0000.26,-000.18,-000.06,-000.35,19.9,26.1,14.5,10.0,0677.1,31.1
2021-08-19T08:36:00Z,00000200,00000000,-000.14,0000.45,0000.01,-000.10,-000.32,-000.17,0000.16,-000.29,0000.07,19.9,26.1,14.5,09.9,0677.1,31.1
2021-08-19T08:37:00Z,00000200,00000000,-000.07,0000.17,0000.23,0000.25,0000.01,0000.21,-000.22,0000.25,0000.17,20.0,26.1,14.5,10.0,0677.1,31.1
2021-08-19T08:38:00Z,00000200,00000000,-000.55,0000.52,0000.05,-000.14,0000.32,0000.13,0000.32,-000.13,-000.01,20.0,26.1,14.5,10.0,0677.1,31.1
2021-08-19T08:39:00Z,00000200,00000000,-001.15,0000.21,0000.02,0000.07,0000.07,-000.05,-000.13,0000.28,-000.30,20.0,26.1,14.6,10.1,0677.1,31.1
2021-08-19T08:40:00Z,00000200,00000000,-000.46,0000.17,0000.02,0000.30,-000.07,0000.25,-000.20,-000.03,0000.27,20.0,26.1,14.7,10.1,0677.1,31.1
2021-08-19T08:41:00Z,00000200,00000000,-000.90,0000.05,0000.08,0000.50,0000.15,0000.02,0000.25,-000.01,-000.12,20.0,26.1,14.7,10.1,0677.1,31.1
2021-08-19T08:42:00Z,00000200,00000000,-000.68,0000.44,-000.01,0000.06,0000.32,0000.45,0000.00,-000.14,0000.24,20.0,26.1,14.6,10.0,0677.1,31.1
2021-08-19T08:43:00Z,00000200,00000000,0000.84,-000.06,0000.10,-000.49,0000.35,0000.16,0000.19,0000.15,-000.19,20.0,26.1,14.7,10.1,0677.1,31.1
2021-08-19T08:44:00Z,00000200,00000000,-000.21,0000.24,-000.16,-000.35,-000.18,-000.16,-000.12,-000.21,0000.28,20.0,26.1,14.8,10.1,0677.1,31.1
2021-08-19T08:45:00Z,00000200,00000000,0000.40,0000.15,0000.30,-000.18,-000.04,0000.40,-000.06,-000.14,-000.36,20.0,26.1,14.7,10.1,0677.1,31.1
2021-08-19T08:46:00Z,00000200,00000000,-000.25,-000.03,0000.31,-000.45,0000.32,0000.04,-000.03,0000.31,0000.13,20.0,26.1,14.8,10.2,0677.1,31.1
2021-08-19T08:47:00Z,00000200,00000000,-000.12,0000.09,0000.16,-000.33,0000.11,0000.32,0000.04,0000.22,-000.09,20.0,26.1,14.8,10.2,0677.1,31.1
2021-08-19T08:48:00Z,00000200,00000000,-000.56,0000.13,0000.19,0000.23,0000.08,0000.37,0000.13,-000.40,-000.11,20.0,26.2,14.8,10.1,0677.1,31.1
2021-08-19T08:49:00Z,00000200,00000000,-000.29,0000.32,-000.35,-000.21,0000.41,0000.12,0000.28,0000.44,0000.44,20.0,26.1,14.7,10.1,0677.1,31.1
2021-08-19T08:50:00Z,00000200,00000000,-000.59,-000.18,0000.12,-000.44,-000.11,0000.05,-000.31,-000.31,-000.35,20.0,26.2,14.8,10.2,0677.1,31.1
2021-08-19T08:51:00Z,00000200,00000000,-000.03,0000.18,0000.33,-000.37,-000.01,-000.07,-000.05,-000.23,0000.35,20.0,26.2,14.8,10.2,0677.1,31.1
2021-08-19T08:52:00Z,00000200,00000000,-000.29,0000.20,-000.00,0000.21,0000.07,0000.06,-000.03,0000.08,-000.17,20.0,26.2,14.8,10.2,0677.1,31.1
2021-08-19T08:53:00Z,00000200,00000000,0000.19,0000.01,-000.08,0000.09,0000.35,0000.23,-000.06,0000.08,-000.06,20.0,26.1,14.8,10.2,0677.1,31.1
2021-08-19T08:54:00Z,00000200,00000000,-000.25,-000.40,0000.27,0000.31,0000.26,0000.32,0000.08,0000.21,0000.13,20.0,26.1,14.9,10.2,0677.1,31.1
2021-08-19T08:55:00Z,00000200,00000000,-000.25,-000.02,-000.20,0000.22,-000.07,-000.10,0000.00,0000.08,-000.24,20.0,26.1,14.8,10.2,0677.1,31.1
2021-08-19T08:56:00Z,00000200,00000000,0000.25,-000.20,0000.21,0000.12,0000.01,0000.10,-000.11,-000.28,-000.14,20.0,26.1,14.8,10.2,0677.1,31.1
2021-08-19T08:57:00Z,00000200,40000000,,,,,,,-000.07,0000.02,0000.20,20.0,26.2,14.6,10.0,0677.2,31.1
2021-08-19T08:58:00Z,00000200,60000000,,,,,,,-000.15,-000.09,-000.14,19.8,26.3,14.8,10.0,0676.1,31.1
2021-08-19T08:59:00Z,00000200,20000000,,,,,,,0000.07,-000.21,-000.02,19.8,26.4,14.9,10.0,0676.1,31.1
